Location: The Saddle
(36.8333°N, 80.3417°W)
Time: 14:38:54
(UTC-05:00)

A-11 Canister half - Pass Details

Date: 14 December 2023
Orbit: 1512 x 1687 km, 47.2° (Epoch: 28 February)

Event Time Altitude Azimuth Distance (km) Brightness Sun altitude
Rises 01:28:47 0° 289° (WNW) 4,741 - -69.2°
Reaches altitude 10° 01:32:02 10° 295° (WNW) 3,780 - -68.7°
Maximum altitude 01:41:15 47° 8° (N) 2,052 - -67.1°
Drops below altitude 10° 01:50:48 10° 80° (E) 3,908 - -65.4°
Exits shadow 01:50:49 10° 80° (E) 3,915 11.3 -65.4°
Sets 01:54:12 0° 86° (E) 4,913 12.0 -64.8°
